Zurück zum Katalog

STARLINK-3044

AktivKommunikationVLEO
NORAD 49438·PAYLOAD·🇺🇸 United States

Gestartet Nov 13, 2021 von Cape Canaveral Space Force Station

Loading…

Nächste Überflüge (nächste 24 Stunden)

TLE

AktuellSource: CelesTrak SupGP

Epoche: Sep 14, 2026, 12:39 UTC

1 49438C 21104AG  26257.52756944 -.00014602  00000+0 -41771-3 0  2574
2 49438  53.1602  77.3714 0001219  97.2111 132.7602 15.35410529    17

Verfolge STARLINK-3044 in Echtzeit mit AllMySat

Download on the App Store